Lid_Strength_Index
1 1 1 1 1 0 0 0 0 0 0 0 -0 -0 -0 -0 -0 4 7 4 3 -2 1 6 6 7 7 8 8 10 14 15 14 13 12 11 12 11 11 11 11 9 11 10 10
1 1 1 1 1 1 1 0 1 1 0 0 0 0 -0 -0 4 7 2 -2 -2 -2 5 6 8 8 9 9 8 10 15 14 12 12 12 11 11 11 10 12 12 11 10 10 10
1 1 1 1 1 1 1 1 1 1 1 1 0 0 0 1 8 8 -1 -3 -2 -0 5 6 7 8 10 10 9 11 12 11 10 10 10 11 12 11 12 11 11 10 10 10 11
1 1 1 2 2 1 1 1 1 1 1 1 1 0 0 4 13 7 -2 -2 -2 3 6 7 8 9 10 10 9 12 10 10 9 9 10 11 10 11 11 8 9 9 10 10 11
1 1 2 2 2 2 2 1 1 1 1 1 1 0 4 10 9 4 -1 -1 2 5 7 8 9 9 11 11 10 11 10 9 9 9 9 9 10 11 11 8 9 9 10 10 10
1 1 1 2 2 2 1 1 1 1 1 1 1 1 8 13 7 4 4 4 6 7 8 8 9 9 10 11 11 11 10 10 10 10 10 10 10 11 8 10 10 10 10 10 10
2 2 2 2 2 2 2 2 1 1 1 1 1 2 8 11 7 6 6 7 7 8 9 9 9 10 11 12 10 11 12 12 11 11 10 10 12 12 8 10 10 10 10 10 10
2 2 2 2 2 2 2 2 2 1 1 1 1 5 12 7 8 8 8 9 8 8 8 9 9 10 11 11 12 14 14 15 12 12 12 11 14 10 10 10 10 10 11 11 10
2 2 2 2 2 2 2 2 2 3 3 2 6 9 12 6 9 8 8 9 9 9 9 7 10 12 12 15 16 17 18 16 14 11 12 13 14 11 11 11 11 11 11 10 10
3 3 3 3 3 3 3 3 3 4 3 3 5 12 11 10 8 8 9 8 10 10 11 11 13 14 15 16 18 18 18 17 17 14 14 14 14 12 10 12 12 11 11 10 9
2 3 3 3 3 2 4 8 11 12 9 12 11 12 11 8 8 9 8 9 10 12 14 13 15 16 14 14 15 17 17 17 15 13 15 15 14 13 11 11 11 12 11 10 9
2 2 2 2 2 3 7 10 10 10 13 10 10 10 9 8 11 10 8 11 12 14 14 15 17 13 14 15 15 15 16 16 14 13 16 15 15 14 13 12 11 10 10 10 10
3 2 2 2 3 5 9 9 7 8 14 12 11 12 11 9 11 11 9 11 13 14 14 15 14 13 14 15 16 16 17 15 16 15 16 17 16 15 14 13 11 11 11 10 10
3 3 2 2 5 7 8 7 7 9 17 15 13 13 11 11 13 11 11 12 14 14 15 15 13 14 15 16 14 16 14 14 15 18 19 17 20 18 15 14 14 12 11 11 11
3 3 2 3 6 6 6 7 8 12 20 13 14 11 11 14 14 14 12 12 15 15 15 16 16 16 16 14 14 15 15 16 17 19 19 19 21 18 16 16 14 13 12 11 11
3 3 3 4 5 5 6 6 9 14 19 15 14 14 14 14 14 14 14 13 14 15 15 15 15 14 14 15 15 15 16 17 19 19 21 18 18 18 17 15 15 13 12 12 11
4 3 4 3 5 5 6 7 13 17 13 15 16 15 15 15 15 15 16 16 17 18 19 18 16 16 14 16 16 16 18 21 22 23 21 18 19 16 14 14 14 12 12 13 13
5 4 3 3 4 4 5 9 17 13 13 12 14 15 15 14 14 15 17 18 16 17 19 19 18 16 15 15 16 17 17 20 25 21 18 19 20 15 14 13 14 14 13 14 13
5 4 4 3 5 4 8 15 15 12 10 11 11 13 15 15 14 15 17 17 15 15 16 19 17 16 15 15 14 18 18 15 18 21 22 17 16 13 15 14 15 14 14 14 15
9 7 6 3 4 5 9 13 11 9 10 9 14 11 15 15 12 15 15 15 15 15 13 14 17 14 16 16 16 15 15 19 19 22 23 20 18 17 14 13 13 14 14 13 14
6 8 6 3 3 7 13 13 11 8 8 10 12 12 12 13 12 13 13 11 13 13 13 13 13 15 14 16 15 17 17 17 17 17 19 19 17 12 13 14 14 14 14 13 13
6 10 4 2 9 9 11 10 9 9 7 9 9 10 11 11 12 12 13 11 9 10 12 11 13 16 14 14 14 14 14 14 17 17 16 16 16 10 10 11 13 11 10 10 12
9 8 2 3 12 11 9 9 8 9 9 9 10 9 9 11 14 11 11 8 7 9 10 10 14 18 17 13 13 13 12 12 12 13 16 18 16 9 9 10 9 11 11 11 11
9 13 7 5 6 9 10 10 11 8 9 8 9 9 10 11 10 12 11 9 8 8 7 8 13 15 18 16 12 14 13 12 12 16 15 15 13 11 9 9 9 9 9 10 11
10 12 9 11 9 9 9 9 11 11 8 8 10 10 11 13 12 13 11 10 9 8 9 10 15 14 13 12 13 13 14 13 15 13 16 14 14 12 9 9 10 11 12 13 13
11 12 9 12 10 10 9 10 11 10 9 10 11 9 10 12 12 13 13 12 13 11 12 12 16 14 16 14 14 14 14 13 13 13 14 14 14 13 14 15 16 14 14 14 14
9 8 9 11 12 13 12 10 10 11 8 9 11 11 11 10 11 11 11 11 12 13 13 12 13 17 19 16 17 19 15 13 12 12 13 15 16 15 16 16 16 15 15 14 14